When you browse on this site, cookies collect data to enhance your experience and personalize the content and advertising you see.
Visit our Privacy Policy to learn more. By continuing to use the site, you agree to this use of cookies and data.

Hourly Weather Cleveland

Today, 5 August, Wednesday

Time Temperature Precipitation Wind Pressure Humidity
00:00 +18°C° 0 mm 3 mps 741 mmHg 77%
01:00 +18°C° 0.2 mm 2 mps 740 mmHg 80%
02:00 +17°C° 0.2 mm 2 mps 740 mmHg 82%
03:00 +18°C° 0.2 mm 1 mps 740 mmHg 85%
04:00 +18°C° 0.1 mm 1 mps 740 mmHg 85%
05:00 +17°C° 0.1 mm 2 mps 741 mmHg 86%
06:00 +17°C° 0.1 mm 2 mps 741 mmHg 86%
07:00 +19°C° 0.1 mm 2 mps 741 mmHg 80%
08:00 +20°C° 0.1 mm 2 mps 741 mmHg 74%
09:00 +23°C° 0.1 mm 2 mps 741 mmHg 68%
10:00 +25°C° 0 mm 2 mps 741 mmHg 62%
11:00 +27°C° 0 mm 2 mps 741 mmHg 56%
12:00 +29°C° 0 mm 2 mps 741 mmHg 49%
13:00 +30°C° 0 mm 2 mps 741 mmHg 48%
14:00 +31°C° 0 mm 2 mps 740 mmHg 48%
15:00 +32°C° 0 mm 2 mps 739 mmHg 47%
16:00 +33°C° 0 mm 3 mps 739 mmHg 50%
17:00 +31°C° 0 mm 3 mps 739 mmHg 53%
18:00 +31°C° 0 mm 3 mps 738 mmHg 56%
19:00 +29°C° 0 mm 3 mps 738 mmHg 63%
20:00 +27°C° 0 mm 3 mps 738 mmHg 70%
21:00 +25°C° 0 mm 3 mps 738 mmHg 77%
22:00 +24°C° 0 mm 3 mps 738 mmHg 79%
23:00 +24°C° 0 mm 3 mps 739 mmHg 81%

Tomorrow, 6 August, Thursday

Time Temperature Precipitation Wind Pressure Humidity
00:00 +22°C° 0 mm 3 mps 739 mmHg 82%
01:00 +22°C° 0.1 mm 3 mps 739 mmHg 84%
02:00 +22°C° 0.1 mm 3 mps 739 mmHg 86%
03:00 +21°C° 0.1 mm 3 mps 738 mmHg 88%
04:00 +21°C° 0.7 mm 3 mps 739 mmHg 90%
05:00 +21°C° 0.7 mm 3 mps 739 mmHg 93%
06:00 +20°C° 0.7 mm 3 mps 739 mmHg 95%
07:00 +22°C° 0 mm 4 mps 739 mmHg 89%
08:00 +23°C° 0 mm 5 mps 739 mmHg 83%
09:00 +26°C° 0 mm 6 mps 739 mmHg 77%
10:00 +28°C° 0 mm 6 mps 739 mmHg 72%
11:00 +29°C° 0 mm 7 mps 739 mmHg 66%
12:00 +32°C° 0 mm 7 mps 739 mmHg 61%
13:00 +32°C° 0.2 mm 6 mps 739 mmHg 62%
14:00 +32°C° 0.2 mm 5 mps 738 mmHg 63%
15:00 +31°C° 0.2 mm 3 mps 738 mmHg 64%
16:00 +32°C° 0.7 mm 4 mps 737 mmHg 67%
17:00 +30°C° 0.7 mm 5 mps 737 mmHg 70%
18:00 +30°C° 0.7 mm 6 mps 737 mmHg 72%
19:00 +29°C° 0 mm 5 mps 737 mmHg 75%
20:00 +28°C° 0 mm 5 mps 737 mmHg 77%
21:00 +28°C° 0 mm 5 mps 737 mmHg 80%
22:00 +28°C° 0 mm 5 mps 737 mmHg 82%
23:00 +27°C° 0 mm 5 mps 737 mmHg 84%

Day after tomorrow, 7 August, Friday

Time Temperature Precipitation Wind Pressure Humidity
00:00 +27°C° 0 mm 6 mps 737 mmHg 86%
01:00 +27°C° 0 mm 6 mps 737 mmHg 86%
02:00 +27°C° 0 mm 6 mps 737 mmHg 85%
03:00 +27°C° 0 mm 6 mps 737 mmHg 84%
04:00 +26°C° 0 mm 5 mps 737 mmHg 83%
05:00 +26°C° 0 mm 5 mps 737 mmHg 81%
06:00 +26°C° 0 mm 5 mps 737 mmHg 79%
07:00 +28°C° 0 mm 6 mps 738 mmHg 73%
08:00 +30°C° 0 mm 7 mps 738 mmHg 67%
09:00 +32°C° 0 mm 7 mps 739 mmHg 61%
10:00 +34°C° 0 mm 8 mps 739 mmHg 55%
11:00 +37°C° 0 mm 8 mps 739 mmHg 49%
12:00 +38°C° 0 mm 8 mps 739 mmHg 44%
13:00 +39°C° 0 mm 8 mps 738 mmHg 42%
14:00 +39°C° 0 mm 8 mps 738 mmHg 40%
15:00 +40°C° 0 mm 8 mps 738 mmHg 38%
16:00 +39°C° 0 mm 8 mps 737 mmHg 42%
17:00 +38°C° 0 mm 7 mps 737 mmHg 45%
18:00 +36°C° 0 mm 7 mps 737 mmHg 48%
19:00 +35°C° 0 mm 6 mps 737 mmHg 51%
20:00 +33°C° 0 mm 6 mps 738 mmHg 53%
21:00 +32°C° 0 mm 6 mps 738 mmHg 55%
22:00 +30°C° 0 mm 6 mps 738 mmHg 58%
23:00 +30°C° 0 mm 6 mps 738 mmHg 60%

8 August, Saturday

Time Temperature Precipitation Wind Pressure Humidity
00:00 +29°C° 0 mm 6 mps 738 mmHg 62%
01:00 +29°C° 0 mm 6 mps 738 mmHg 63%
02:00 +29°C° 0 mm 6 mps 738 mmHg 65%
03:00 +28°C° 0 mm 5 mps 738 mmHg 66%
04:00 +28°C° 0 mm 5 mps 739 mmHg 66%
05:00 +28°C° 0 mm 5 mps 739 mmHg 66%
06:00 +28°C° 0 mm 6 mps 739 mmHg 66%
07:00 +29°C° 0 mm 6 mps 739 mmHg 63%
08:00 +32°C° 0 mm 7 mps 740 mmHg 59%
09:00 +34°C° 0 mm 8 mps 740 mmHg 55%
10:00 +35°C° 0 mm 8 mps 740 mmHg 51%
11:00 +38°C° 0 mm 8 mps 740 mmHg 47%
12:00 +39°C° 0 mm 8 mps 740 mmHg 43%
13:00 +40°C° 0 mm 8 mps 740 mmHg 42%
14:00 +40°C° 0 mm 8 mps 739 mmHg 41%
15:00 +40°C° 0 mm 8 mps 739 mmHg 41%
16:00 +39°C° 0 mm 8 mps 739 mmHg 43%
17:00 +38°C° 0 mm 7 mps 738 mmHg 46%
18:00 +36°C° 0 mm 6 mps 738 mmHg 48%
19:00 +35°C° 0 mm 6 mps 739 mmHg 49%
20:00 +34°C° 0 mm 6 mps 739 mmHg 51%
21:00 +33°C° 0 mm 5 mps 739 mmHg 52%
22:00 +32°C° 0 mm 5 mps 739 mmHg 52%
23:00 +30°C° 0 mm 5 mps 739 mmHg 52%

9 August, Sunday

Time Temperature Precipitation Wind Pressure Humidity
00:00 +30°C° 0 mm 5 mps 739 mmHg 52%
01:00 +29°C° 0.1 mm 5 mps 739 mmHg 56%
02:00 +28°C° 0.1 mm 5 mps 739 mmHg 60%
03:00 +28°C° 0.1 mm 5 mps 739 mmHg 63%
04:00 +28°C° 0 mm 5 mps 739 mmHg 62%
05:00 +28°C° 0 mm 4 mps 739 mmHg 61%
06:00 +28°C° 0 mm 4 mps 739 mmHg 61%
07:00 +29°C° 0 mm 5 mps 739 mmHg 58%
08:00 +32°C° 0 mm 6 mps 740 mmHg 55%
09:00 +34°C° 0 mm 7 mps 740 mmHg 53%
10:00 +36°C° 0 mm 7 mps 740 mmHg 48%
11:00 +38°C° 0 mm 7 mps 740 mmHg 44%
12:00 +40°C° 0 mm 7 mps 739 mmHg 39%
13:00 +40°C° 0 mm 7 mps 739 mmHg 38%
14:00 +41°C° 0 mm 7 mps 739 mmHg 37%
15:00 +41°C° 0 mm 7 mps 738 mmHg 35%
16:00 +40°C° 0 mm 7 mps 738 mmHg 38%
17:00 +39°C° 0 mm 6 mps 737 mmHg 41%
18:00 +36°C° 0 mm 6 mps 737 mmHg 44%
19:00 +36°C° 0 mm 6 mps 737 mmHg 45%
20:00 +35°C° 0 mm 6 mps 737 mmHg 47%
21:00 +34°C° 0 mm 6 mps 738 mmHg 48%
22:00 +33°C° 0 mm 6 mps 738 mmHg 51%
23:00 +32°C° 0 mm 6 mps 737 mmHg 54%

10 August, Monday

Time Temperature Precipitation Wind Pressure Humidity
00:00 +30°C° 0 mm 6 mps 737 mmHg 57%
01:00 +30°C° 0 mm 6 mps 737 mmHg 59%
02:00 +29°C° 0 mm 6 mps 737 mmHg 62%
03:00 +29°C° 0 mm 6 mps 737 mmHg 64%
04:00 +28°C° 0.3 mm 5 mps 737 mmHg 68%
05:00 +27°C° 0.3 mm 5 mps 737 mmHg 72%
06:00 +26°C° 0.3 mm 5 mps 737 mmHg 76%
07:00 +28°C° 0 mm 6 mps 738 mmHg 70%
08:00 +30°C° 0 mm 7 mps 738 mmHg 63%
09:00 +33°C° 0 mm 8 mps 738 mmHg 56%
10:00 +35°C° 0 mm 8 mps 738 mmHg 50%
11:00 +38°C° 0 mm 8 mps 738 mmHg 43%
12:00 +40°C° 0 mm 8 mps 737 mmHg 36%
13:00 +41°C° 0 mm 8 mps 737 mmHg 34%
14:00 +41°C° 0 mm 8 mps 736 mmHg 32%
15:00 +43°C° 0 mm 8 mps 736 mmHg 30%
16:00 +41°C° 0 mm 7 mps 736 mmHg 33%
17:00 +40°C° 0 mm 7 mps 736 mmHg 36%
18:00 +39°C° 0 mm 6 mps 735 mmHg 38%
19:00 +38°C° 0 mm 6 mps 736 mmHg 42%
20:00 +35°C° 0 mm 6 mps 736 mmHg 45%
21:00 +33°C° 0 mm 5 mps 736 mmHg 48%
22:00 +33°C° 0 mm 6 mps 736 mmHg 51%
23:00 +32°C° 0 mm 6 mps 736 mmHg 54%
Show more